[[{"header":{"parameterUnit":"m.s-1","parameterCategory":1,"la1":30.2991,"la2":30.254,"lo1":-89.0895,"lo2":-89.0444,"dy":0.0017,"dx":0.0017,"nx":28,"ny":28,"refTime":"2025-08-25T21:00:00:Z","depth":0,"parameterNumber":2,"parameterNumberName":"U-component_of_WINDS"},"data":[0,0,0,0,0,0,0,0,0,0,0,0,0,0,0,0,0,0,0,0,0,0,0,0,0,0,0,0,0,0,0,0,0,0,0,0,0,0,0,0,0,0,0,0,0,0,0,0,0,0,0,0,0,0,0,0,0,0,-2.1041,-2.104,0,-2.0959,-2.0958,-2.0957,-2.0845,-2.0843,-2.0841,-2.0839,-2.0755,-2.0755,-2.0754,0,0,0,0,0,0,0,0,0,0,0,0,0,-2.1101,-2.11,-2.1041,-2.104,-2.1039,-2.0959,-2.0958,-2.0957,-2.0845,-2.0843,-2.0841,-2.0838,-2.0755,-2.0755,-2.0754,0,0,0,0,0,0,0,0,0,0,0,0,0,-2.1053,-2.11,-2.1041,-2.0974,-2.0967,-2.096,-2.0958,-2.0957,-2.0846,-2.0843,-2.084,-2.0837,-2.0755,-2.0755,-2.0754,-2.0807,0,0,-2.0752,-2.0752,0,0,0,0,0,0,0,0,-2.1056,-2.1051,-2.0985,-2.0978,-2.097,-2.0909,-2.0948,-2.0906,-2.0846,-2.0892,-2.0839,-2.0836,-2.0809,-2.0803,-2.0794,-2.0803,-2.0799,-2.0752,-2.0751,-2.0751,-2.0751,0,0,0,0,0,0,0,-2.1059,-2.1053,-2.1009,-2.0984,-2.0975,-2.0947,-2.0937,-2.094,-2.0867,-2.0887,-2.0879,-2.0871,-2.0804,-2.0795,-2.0791,-2.0798,-2.0752,-2.0751,-2.0751,-2.0751,-2.0846,-2.0849,0,0,0,0,0,0,-2.1072,-2.1057,-2.1011,-2.1006,-2.1007,-2.0949,-2.0937,-2.0932,-2.0867,-2.0854,-2.0873,-2.0866,-2.0798,-2.0792,-2.0788,-2.0846,-2.0751,-2.075,-2.075,-2.0844,-2.0847,-2.085,0,0,0,0,0,0,-2.1074,-2.1069,-2.1014,-2.1029,-2.102,-2.0951,-2.0945,-2.0932,-2.0922,-2.0856,-2.0843,-2.0878,-2.0795,-2.0789,-2.0803,-2.0842,-2.075,-2.0749,-2.084,-2.0845,-2.0849,-2.0963,0,0,0,0,0,0,-2.1076,-2.1071,-2.109,-2.1031,-2.102,-2.1031,-2.0947,-2.0932,-2.0922,-2.0911,-2.0856,-2.0845,-2.0793,-2.0805,-2.0803,-2.0839,-2.0749,-2.0836,-2.0842,-2.0847,-2.0955,-2.097,-2.0983,0,0,0,0,0,-2.1079,-2.1125,-2.1091,-2.1086,-2.1042,-2.1033,-2.1027,-2.0967,-2.0925,-2.0944,-2.0902,-2.0846,-2.0838,-2.0807,-2.0804,-2.0841,-2.0834,-2.084,-2.0847,-2.0949,-2.0967,-2.0983,0,0,0,0,0,0,-2.119,-2.1116,-2.1078,-2.1106,-2.1077,-2.1015,-2.1036,-2.0988,-2.097,-2.0961,-2.0887,-2.0875,-2.0899,-2.0871,-2.0838,-2.0889,-2.0827,-2.0834,-2.0906,-2.0923,-2.0937,-2.0944,-2.0748,0,0,0,0,0,-2.1218,-2.1217,-2.1152,-2.1183,-2.117,-2.1106,-2.11,-2.1056,-2.1023,-2.101,-2.0969,-2.0939,-2.0929,-2.0925,-2.0912,-2.095,-2.0937,-2.0974,-2.0988,-2.1,-2.1007,-2.1026,-2.1042,-2.0872,-2.0872,-2.0872,0,0,-2.1275,-2.1234,-2.1238,-2.1204,-2.1176,-2.1178,-2.1097,-2.1101,-2.1101,-2.1011,-2.1022,-2.0991,-2.0952,-2.0979,-2.0989,-2.0957,-2.1051,-2.1009,-2.1019,-2.1019,-2.1035,-2.1051,-2.1065,-2.0877,-2.0876,-2.0875,0,0,-2.138,-2.1349,-2.1372,-2.1346,-2.1305,-2.1263,-2.1269,-2.1214,-2.119,-2.12,-2.1132,-2.1132,-2.1117,-2.1093,-2.1078,-2.1176,-2.1125,-2.1174,-2.1249,-2.1268,-2.1282,-2.1293,-2.1329,-2.1343,-2.1181,-2.1181,-2.1181,0,-2.1456,-2.1455,-2.1389,-2.1398,-2.1386,-2.1305,-2.1328,-2.1306,-2.1264,-2.1257,-2.1222,-2.1202,-2.1171,-2.1191,-2.1216,-2.1206,-2.1211,-2.118,-2.1285,-2.1296,-2.1306,-2.1339,-2.1353,-2.1187,-2.1187,-2.1186,-2.1185,0,-2.1551,-2.1551,-2.1575,-2.1537,-2.1527,-2.1543,-2.1481,-2.1478,-2.1436,-2.1397,-2.1409,-2.1369,-2.1347,-2.1349,-2.1307,-2.1364,-2.1345,-2.1299,-2.1236,-2.133,-2.136,-2.1372,-2.1196,-2.1194,-2.1192,-2.1191,0,0,-2.1723,-2.1649,-2.1659,-2.1641,-2.1591,-2.1591,-2.1604,-2.1583,-2.1583,-2.1557,-2.1566,-2.1557,-2.1513,-2.1498,-2.1452,-2.147,-2.1551,-2.1421,-2.1419,-2.1447,-2.1613,-2.165,-2.1665,-2.1517,-2.1519,-2.1521,-2.1617,0,-2.1819,-2.1836,-2.1779,-2.1811,-2.1812,-2.1735,-2.1746,-2.1718,-2.1682,-2.1677,-2.1638,-2.1633,-2.1576,-2.1566,-2.158,-2.1539,-2.1584,-2.1531,-2.1526,-2.1527,-2.1538,-2.1681,-2.1718,-2.1811,-2.1628,-2.163,-2.1632,0,-2.1932,-2.1913,-2.1947,-2.1896,-2.1894,-2.1905,-2.1882,-2.1879,-2.1845,-2.1817,-2.1801,-2.1749,-2.1758,-2.1699,-2.1711,-2.1677,-2.1671,-2.1651,-2.1653,-2.1651,-2.1585,-2.1683,-2.1839,-2.1853,-2.1649,-2.1648,-2.1647,0,-2.2056,-2.2038,-2.2056,-2.2043,-2.1984,-2.1994,-2.197,-2.1933,-2.1925,-2.1905,-2.1899,-2.1881,-2.1871,-2.1859,-2.1803,-2.1765,-2.1823,-2.1758,-2.1802,-2.1804,-2.1818,-2.1818,-2.1976,-2.1814,-2.1814,-2.1813,-2.1813,0,-2.2169,-2.2193,-2.2111,-2.2122,-2.2146,-2.208,-2.2106,-2.2074,-2.2042,-2.2046,-2.1979,-2.1984,-2.191,-2.1908,-2.1865,-2.1883,-2.1878,-2.1857,-2.1846,-2.1864,-2.1867,-2.1859,-2.1852,-2.1817,-2.1816,-2.1815,-2.1815,0,-2.2311,-2.2257,-2.2271,-2.2215,-2.2201,-2.2222,-2.2174,-2.2182,-2.2143,-2.2149,-2.2147,-2.2085,-2.2079,-2.2022,-2.2003,-2.1974,-2.2009,-2.1984,-2.202,-2.2013,-2.206,-2.2057,-2.2219,-2.2237,-2.2064,-2.2066,-2.2067,0,-2.2387,-2.2403,-2.2349,-2.2347,-2.2327,-2.2324,-2.2316,-2.2252,-2.2246,-2.2209,-2.2222,-2.221,-2.2197,-2.2191,-2.2145,-2.213,-2.2105,-2.2163,-2.2102,-2.2121,-2.2107,-2.2107,-2.2109,-2.2176,-2.2178,-2.218,-2.2182,0,-2.2528,-2.2501,-2.2491,-2.2473,-2.2466,-2.2448,-2.2426,-2.2429,-2.2358,-2.2355,-2.2348,-2.2338,-2.2319,-2.2308,-2.2286,-2.2261,-2.2211,-2.2201,-2.2211,-2.2229,-2.225,-2.2241,-2.2056,-2.2198,-2.2196,-2.2195,-2.2194,-2.2193,-2.264,-2.2651,-2.2615,-2.2607,-2.2585,-2.2566,-2.2572,-2.2534,-2.2527,-2.2506,-2.2469,-2.2468,-2.2434,-2.2399,-2.2379,-2.2377,-2.2347,-2.2361,-2.2364,-2.2369,-2.2379,-2.2251,-2.2373,-2.2372,-2.2372,-2.2371,-2.2371,0,-2.2778,-2.2751,-2.2745,-2.2717,-2.2712,-2.2664,-2.2638,-2.2637,-2.2636,-2.261,-2.2599,-2.2591,-2.2581,-2.2535,-2.252,-2.2528,-2.2504,-2.2526,-2.2525,-2.2521,-2.2406,-2.24,-2.2546,-2.2546,-2.2546,-2.2546,-2.2545,-2.2545,-2.2849,-2.2867,-2.2836,-2.2842,-2.2814,-2.2813,-2.2803,-2.2786,-2.2764,-2.2759,-2.275,-2.272,-2.2686,-2.2668,-2.2657,-2.2644,-2.2642,-2.2672,-2.2651,-2.2545,-2.2528,-2.2512,-2.2506,-2.2672,-2.2672,-2.2766,-2.2767,-2.2767]},{"header":{"parameterUnit":"m.s-1","parameterCategory":1,"la1":30.2991,"la2":30.254,"lo1":-89.0895,"lo2":-89.0444,"dy":0.0017,"dx":0.0017,"nx":28,"ny":28,"refTime":"2025-08-25T21:00:00:Z","depth":0,"parameterNumber":3,"parameterNumberName":"V-component_of_WINDS"},"data":[0,0,0,0,0,0,0,0,0,0,0,0,0,0,0,0,0,0,0,0,0,0,0,0,0,0,0,0,0,0,0,0,0,0,0,0,0,0,0,0,0,0,0,0,0,0,0,0,0,0,0,0,0,0,0,0,0,0,1.7263,1.7262,0,1.721,1.7209,1.7209,1.7182,1.7182,1.7182,1.7182,1.7121,1.712,1.7118,0,0,0,0,0,0,0,0,0,0,0,0,0,1.7337,1.7336,1.7263,1.7262,1.7262,1.721,1.7209,1.7208,1.7182,1.7182,1.7182,1.7182,1.7122,1.712,1.7118,0,0,0,0,0,0,0,0,0,0,0,0,0,1.7296,1.7335,1.7263,1.7242,1.724,1.721,1.7209,1.7208,1.7182,1.7182,1.7182,1.7182,1.7122,1.712,1.7118,1.7103,0,0,1.711,1.7109,0,0,0,0,0,0,0,0,1.7299,1.7294,1.7246,1.7244,1.7241,1.7203,1.7213,1.7173,1.7182,1.7204,1.7182,1.7182,1.7148,1.7143,1.7133,1.71,1.7097,1.711,1.7109,1.7108,1.7107,0,0,0,0,0,0,0,1.7302,1.7296,1.7242,1.7245,1.7242,1.7234,1.7228,1.7205,1.7176,1.7202,1.72,1.7194,1.7146,1.7136,1.7132,1.7096,1.711,1.7108,1.7107,1.7106,1.7049,1.7049,0,0,0,0,0,0,1.7308,1.7298,1.7243,1.724,1.7271,1.7233,1.7226,1.7215,1.7176,1.7171,1.7194,1.7193,1.714,1.7134,1.7129,1.711,1.7108,1.7105,1.7104,1.7049,1.7049,1.7049,0,0,0,0,0,0,1.731,1.7304,1.7246,1.7269,1.7261,1.7232,1.7219,1.7214,1.7203,1.7171,1.7165,1.7189,1.7139,1.7133,1.711,1.7107,1.7104,1.7102,1.7049,1.7049,1.7049,1.7071,0,0,0,0,0,0,1.7312,1.7305,1.73,1.7269,1.726,1.7229,1.7219,1.7213,1.7199,1.7197,1.7164,1.7158,1.7139,1.7114,1.7108,1.7104,1.71,1.7049,1.7049,1.7049,1.707,1.7071,1.7072,0,0,0,0,0,1.7315,1.7306,1.7299,1.7293,1.7253,1.7229,1.7223,1.7203,1.7199,1.7193,1.7173,1.7159,1.7109,1.7112,1.7105,1.71,1.7049,1.7049,1.7049,1.7069,1.7071,1.7072,0,0,0,0,0,0,1.7335,1.7302,1.7294,1.7275,1.7255,1.7224,1.7216,1.7205,1.7184,1.7183,1.7156,1.7149,1.7129,1.7112,1.7116,1.7084,1.7078,1.7076,1.7096,1.7097,1.7098,1.7102,1.7098,0,0,0,0,0,1.7337,1.7322,1.7293,1.7279,1.727,1.7245,1.7234,1.722,1.7197,1.7188,1.7166,1.7143,1.7122,1.7109,1.7088,1.7068,1.706,1.7061,1.7062,1.7064,1.7062,1.7051,1.7051,1.7049,1.7049,1.7049,0,0,1.7341,1.7322,1.7313,1.7283,1.7266,1.7249,1.7238,1.722,1.7208,1.7185,1.7163,1.7146,1.7119,1.7098,1.7088,1.7083,1.7061,1.7063,1.7065,1.7062,1.7051,1.7051,1.7051,1.7049,1.7049,1.7049,0,0,1.7341,1.7325,1.7312,1.7296,1.7271,1.7255,1.7252,1.7223,1.7212,1.719,1.7173,1.7156,1.7121,1.7102,1.7088,1.7083,1.707,1.7077,1.7082,1.7072,1.7072,1.7072,1.707,1.707,1.7076,1.7076,1.7076,0,1.7349,1.7325,1.7306,1.729,1.7277,1.7259,1.7245,1.723,1.7198,1.7189,1.7186,1.7142,1.7122,1.7097,1.7096,1.7086,1.7081,1.708,1.7074,1.7074,1.7073,1.7071,1.707,1.7077,1.7077,1.7077,1.7077,0,1.7335,1.7319,1.7311,1.7285,1.7271,1.7256,1.7234,1.7222,1.721,1.7194,1.7172,1.7148,1.7123,1.7116,1.7103,1.7089,1.7087,1.7079,1.7072,1.7075,1.7072,1.7071,1.7078,1.7078,1.7078,1.7077,0,0,1.7344,1.7309,1.7306,1.7294,1.7267,1.7253,1.7237,1.7214,1.7205,1.7184,1.717,1.7141,1.7134,1.7119,1.7104,1.7094,1.7092,1.7087,1.7086,1.7089,1.7075,1.7081,1.708,1.7084,1.7084,1.7083,1.7077,0,1.7339,1.7312,1.7295,1.7274,1.7259,1.7242,1.7229,1.721,1.7195,1.7178,1.7161,1.7141,1.7133,1.7124,1.7114,1.7094,1.7089,1.7095,1.7069,1.7068,1.7075,1.7079,1.7084,1.708,1.7076,1.7076,1.7076,0,1.7329,1.7312,1.729,1.7266,1.7258,1.7247,1.7225,1.721,1.7188,1.7177,1.7161,1.7147,1.7129,1.7125,1.7099,1.7103,1.7092,1.7081,1.708,1.7076,1.7071,1.7074,1.7078,1.7077,1.7074,1.7074,1.7074,0,1.7337,1.7308,1.7292,1.7282,1.7253,1.7245,1.7232,1.7211,1.7198,1.7179,1.717,1.7149,1.7136,1.7119,1.7099,1.7098,1.7075,1.7069,1.7065,1.7065,1.7059,1.706,1.7061,1.7054,1.7054,1.7054,1.7054,0,1.7333,1.732,1.7295,1.7285,1.727,1.7251,1.7236,1.7222,1.7203,1.7189,1.7173,1.7159,1.7134,1.7117,1.7101,1.7082,1.7077,1.7067,1.7063,1.7068,1.7069,1.7059,1.7058,1.7053,1.7054,1.7054,1.7054,0,1.7338,1.7321,1.7302,1.7278,1.7271,1.7261,1.7239,1.7228,1.7213,1.7195,1.719,1.7166,1.7145,1.7124,1.7096,1.7085,1.7067,1.7061,1.7075,1.7072,1.7069,1.7069,1.7063,1.7061,1.7056,1.7056,1.7056,0,1.7336,1.7327,1.7302,1.7292,1.728,1.7265,1.7253,1.7234,1.7222,1.7198,1.7189,1.7169,1.7151,1.7119,1.7098,1.7076,1.7069,1.7069,1.7066,1.7072,1.7069,1.7069,1.7068,1.7069,1.7069,1.7069,1.7069,0,1.7334,1.7327,1.7312,1.7294,1.7281,1.7265,1.7248,1.7241,1.7219,1.7206,1.7186,1.7173,1.7146,1.7125,1.7101,1.7086,1.7074,1.7071,1.7069,1.7073,1.7082,1.7077,1.7076,1.7071,1.707,1.707,1.707,1.707,1.7336,1.7327,1.7308,1.7292,1.7278,1.7263,1.7252,1.7237,1.7221,1.7199,1.7188,1.7169,1.7147,1.7115,1.7101,1.7084,1.708,1.7077,1.7076,1.7075,1.7077,1.7086,1.708,1.708,1.708,1.7079,1.7079,0,1.7333,1.7321,1.7306,1.7285,1.7272,1.7264,1.7246,1.7235,1.7218,1.7201,1.7185,1.7162,1.7142,1.7121,1.7099,1.709,1.7084,1.7085,1.7085,1.7082,1.7081,1.7085,1.7091,1.7091,1.7091,1.7091,1.7091,1.7091,1.733,1.7314,1.7305,1.7282,1.7269,1.7252,1.7242,1.7228,1.7214,1.7191,1.7175,1.7162,1.7143,1.712,1.7101,1.7095,1.7088,1.7091,1.7083,1.7083,1.7082,1.7081,1.7084,1.7089,1.7089,1.7085,1.7084,1.7084]}]]